User: anonymous   Login
Location: Biharia
(46.4333°N, 22.8000°E)
Time: 06:19:02
(UTC+00:00)
Language:

Cosmos 2263 Rocket - Orbit

View from above orbital plane
View from above orbital plane
View from above satellite
View from above satellite

Ground track
Ground track

The orbit data is extracted from the following two-line orbital elements,

1 22803U 93059B   22027.84940246  .00000225  00000-0  13612-3 0  9996
2 22803  70.9909 297.1402 0018193 331.5205  28.4923 14.16850111467044
Epoch (UTC): 27 January 2022 20:23:08
Eccentricity: 0.0018193
inclination: 70.9909°
perigee height: 823 km
apogee height: 849 km
right ascension of ascending node: 297.1402°
argument of perigee: 331.5205°
revolutions per day: 14.16850111
mean anomaly at epoch: 28.4923°
orbit number at epoch: 46704

The dashed part of the orbit path shows where the satellite is in the earth's shadow,  

DLR